Alleghany, Virginia
Current Conditions -  °F | °C
As of 1:55 PM on Wednesday 26 Nov 2014 (Local Time) from KLWB Reporting Station
Light Rain Light Rain  
Wind Chill: 36°   Ceiling: 300
Heat Index: 36°   Visibility: 5mi
Dew Point: 34°   Wind: 0mph
Humidity: 93%   Direction: NA
Pressure: 29.94"   Gusts: NA
Location:  37.7731°N, 80.0632°W
Report Text: KLWB 261855Z AUTO 00000KT 5SM -RA BKN003 BKN016 OVC037 02/01 A2994 RMK AO2 P0001 T00220012
Loading
Personal Weather Stations






























Interactive Weather Map New forecast layout! Learn more

10-Day Weather Forecast

Advertisements
Track Severe Weather on mobile